EN

Hourly Weather Almonacid

Today, 18 January, Monday

Time Temperature Precipitation Wind Pressure Humidity
00:00 +3°C° 0 mm 6 mps 718 mmHg 84%
01:00 +3°C° 0 mm 5 mps 718 mmHg 83%
02:00 +2°C° 0 mm 5 mps 718 mmHg 83%
03:00 +3°C° 0 mm 4 mps 717 mmHg 83%
04:00 +3°C° 0 mm 4 mps 717 mmHg 83%
05:00 +3°C° 0 mm 4 mps 717 mmHg 82%
06:00 +1°C° 0 mm 4 mps 717 mmHg 82%
07:00 +3°C° 0 mm 4 mps 718 mmHg 81%
08:00 +3°C° 0 mm 4 mps 718 mmHg 81%
09:00 +4°C° 0 mm 3 mps 718 mmHg 81%
10:00 +5°C° 0 mm 4 mps 718 mmHg 78%
11:00 +6°C° 0 mm 4 mps 718 mmHg 75%
12:00 +7°C° 0 mm 5 mps 718 mmHg 72%
13:00 +8°C° 0 mm 4 mps 718 mmHg 70%
14:00 +8°C° 0 mm 4 mps 717 mmHg 69%
15:00 +8°C° 0 mm 4 mps 717 mmHg 68%
16:00 +8°C° 0 mm 3 mps 717 mmHg 71%
17:00 +5°C° 0 mm 3 mps 717 mmHg 75%
18:00 +4°C° 0 mm 3 mps 717 mmHg 78%
19:00 +3°C° 0 mm 3 mps 717 mmHg 79%
20:00 +4°C° 0 mm 2 mps 717 mmHg 79%
21:00 +4°C° 0 mm 2 mps 717 mmHg 79%
22:00 +3°C° 0 mm 2 mps 717 mmHg 80%
23:00 +3°C° 0 mm 2 mps 718 mmHg 81%

Tomorrow, 19 January, Tuesday

Time Temperature Precipitation Wind Pressure Humidity
00:00 +3°C° 0 mm 2 mps 718 mmHg 82%
01:00 +2°C° 0 mm 2 mps 717 mmHg 83%
02:00 +3°C° 0 mm 1 mps 717 mmHg 83%
03:00 +3°C° 0 mm 1 mps 716 mmHg 84%
04:00 +2°C° 0 mm 1 mps 716 mmHg 83%
05:00 +2°C° 0 mm 1 mps 716 mmHg 83%
06:00 +2°C° 0 mm 1 mps 716 mmHg 83%
07:00 +3°C° 0 mm 1 mps 716 mmHg 79%
08:00 +4°C° 0 mm 1 mps 716 mmHg 75%
09:00 +5°C° 0 mm 2 mps 716 mmHg 70%
10:00 +6°C° 0 mm 2 mps 716 mmHg 67%
11:00 +7°C° 0 mm 2 mps 715 mmHg 63%
12:00 +8°C° 0 mm 2 mps 715 mmHg 59%
13:00 +9°C° 0 mm 2 mps 715 mmHg 59%
14:00 +9°C° 0 mm 2 mps 714 mmHg 59%
15:00 +9°C° 0 mm 2 mps 713 mmHg 59%
16:00 +8°C° 0 mm 2 mps 713 mmHg 64%
17:00 +6°C° 0 mm 2 mps 713 mmHg 70%
18:00 +5°C° 0 mm 2 mps 713 mmHg 75%
19:00 +4°C° 0 mm 2 mps 713 mmHg 74%
20:00 +4°C° 0 mm 2 mps 713 mmHg 74%
21:00 +4°C° 0 mm 2 mps 713 mmHg 73%
22:00 +4°C° 0 mm 2 mps 712 mmHg 73%
23:00 +3°C° 0 mm 3 mps 712 mmHg 73%

Day after tomorrow, 20 January, Wednesday

Time Temperature Precipitation Wind Pressure Humidity
00:00 +3°C° 0 mm 3 mps 711 mmHg 72%
01:00 +2°C° 0 mm 3 mps 711 mmHg 74%
02:00 +2°C° 0 mm 3 mps 710 mmHg 75%
03:00 +2°C° 0 mm 3 mps 709 mmHg 77%
04:00 +2°C° 0 mm 3 mps 709 mmHg 78%
05:00 +2°C° 0 mm 3 mps 709 mmHg 78%
06:00 +2°C° 0 mm 3 mps 708 mmHg 79%
07:00 +3°C° 0 mm 3 mps 708 mmHg 78%
08:00 +3°C° 0 mm 3 mps 708 mmHg 77%
09:00 +4°C° 0 mm 3 mps 708 mmHg 76%
10:00 +5°C° 0.1 mm 4 mps 707 mmHg 75%
11:00 +6°C° 0.1 mm 5 mps 707 mmHg 73%
12:00 +7°C° 0.1 mm 5 mps 707 mmHg 72%
13:00 +7°C° 0.1 mm 6 mps 706 mmHg 73%
14:00 +7°C° 0.1 mm 6 mps 705 mmHg 75%
15:00 +7°C° 0.1 mm 6 mps 704 mmHg 76%
16:00 +6°C° 0 mm 5 mps 704 mmHg 78%
17:00 +6°C° 0 mm 5 mps 704 mmHg 80%
18:00 +5°C° 0 mm 4 mps 704 mmHg 82%
19:00 +5°C° 0 mm 4 mps 704 mmHg 81%
20:00 +5°C° 0 mm 4 mps 704 mmHg 81%
21:00 +5°C° 0 mm 4 mps 704 mmHg 80%
22:00 +6°C° 0 mm 5 mps 704 mmHg 79%
23:00 +5°C° 0 mm 6 mps 705 mmHg 78%

21 January, Thursday

Time Temperature Precipitation Wind Pressure Humidity
00:00 +5°C° 0 mm 7 mps 705 mmHg 77%
01:00 +5°C° 0 mm 8 mps 705 mmHg 77%
02:00 +5°C° 0 mm 8 mps 705 mmHg 76%
03:00 +5°C° 0 mm 9 mps 705 mmHg 76%
04:00 +5°C° 0 mm 9 mps 705 mmHg 76%
05:00 +5°C° 0 mm 9 mps 706 mmHg 75%
06:00 +5°C° 0 mm 9 mps 706 mmHg 75%
07:00 +6°C° 0 mm 9 mps 706 mmHg 74%
08:00 +6°C° 0 mm 8 mps 706 mmHg 73%
09:00 +7°C° 0 mm 8 mps 707 mmHg 72%
10:00 +8°C° 0 mm 9 mps 707 mmHg 69%
11:00 +9°C° 0 mm 10 mps 707 mmHg 65%
12:00 +11°C° 0 mm 10 mps 707 mmHg 62%
13:00 +11°C° 0 mm 10 mps 706 mmHg 62%
14:00 +9°C° 0 mm 10 mps 706 mmHg 63%
15:00 +9°C° 0 mm 10 mps 705 mmHg 63%
16:00 +10°C° 0 mm 9 mps 705 mmHg 65%
17:00 +8°C° 0 mm 9 mps 705 mmHg 68%
18:00 +9°C° 0 mm 8 mps 704 mmHg 70%
19:00 +8°C° 0 mm 9 mps 704 mmHg 71%
20:00 +8°C° 0 mm 10 mps 704 mmHg 72%
21:00 +8°C° 0 mm 11 mps 704 mmHg 72%
22:00 +8°C° 0 mm 10 mps 705 mmHg 73%
23:00 +8°C° 0 mm 9 mps 705 mmHg 74%

22 January, Friday

Time Temperature Precipitation Wind Pressure Humidity
00:00 +9°C° 0 mm 8 mps 705 mmHg 75%
01:00 +7°C° 0 mm 8 mps 705 mmHg 75%
02:00 +8°C° 0 mm 7 mps 705 mmHg 76%
03:00 +7°C° 0 mm 6 mps 704 mmHg 76%
04:00 +7°C° 0.1 mm 6 mps 704 mmHg 76%
05:00 +7°C° 0.1 mm 6 mps 704 mmHg 77%
06:00 +7°C° 0.1 mm 6 mps 704 mmHg 77%
07:00 +7°C° 0.1 mm 5 mps 704 mmHg 77%
08:00 +7°C° 0.1 mm 5 mps 704 mmHg 76%
09:00 +8°C° 0.1 mm 4 mps 704 mmHg 75%
10:00 +8°C° 0.8 mm 6 mps 703 mmHg 70%
11:00 +7°C° 0.8 mm 8 mps 703 mmHg 65%
12:00 +7°C° 0.8 mm 10 mps 703 mmHg 59%
13:00 +7°C° 0 mm 12 mps 703 mmHg 57%
14:00 +8°C° 0 mm 14 mps 703 mmHg 55%
15:00 +8°C° 0 mm 15 mps 703 mmHg 52%
16:00 +6°C° 0 mm 14 mps 703 mmHg 55%
17:00 +5°C° 0 mm 13 mps 704 mmHg 57%
18:00 +4°C° 0 mm 12 mps 704 mmHg 59%
19:00 +4°C° 0 mm 12 mps 704 mmHg 61%
20:00 +4°C° 0 mm 13 mps 705 mmHg 62%
21:00 +4°C° 0 mm 14 mps 705 mmHg 64%
22:00 +3°C° 0 mm 12 mps 706 mmHg 66%
23:00 +3°C° 0 mm 10 mps 706 mmHg 69%

23 January, Saturday

Time Temperature Precipitation Wind Pressure Humidity
00:00 +2°C° 0 mm 9 mps 707 mmHg 72%
01:00 +2°C° 0 mm 10 mps 707 mmHg 71%
02:00 +2°C° 0 mm 11 mps 708 mmHg 70%
03:00 0°C° 0 mm 13 mps 708 mmHg 69%
04:00 0°C° 0 mm 13 mps 708 mmHg 68%
05:00 0°C° 0 mm 13 mps 708 mmHg 66%
06:00 0°C° 0 mm 13 mps 709 mmHg 65%
07:00 0°C° 0 mm 13 mps 709 mmHg 65%
08:00 +1°C° 0 mm 14 mps 710 mmHg 64%
09:00 +1°C° 0 mm 14 mps 710 mmHg 63%
10:00 +4°C° 0 mm 13 mps 710 mmHg 59%
11:00 +5°C° 0 mm 13 mps 710 mmHg 55%
12:00 +7°C° 0 mm 12 mps 710 mmHg 51%
13:00 +7°C° 0 mm 12 mps 710 mmHg 51%
14:00 +7°C° 0 mm 12 mps 710 mmHg 52%
15:00 +8°C° 0 mm 11 mps 710 mmHg 52%
16:00 +7°C° 0 mm 9 mps 710 mmHg 57%
17:00 +6°C° 0 mm 8 mps 710 mmHg 62%
18:00 +5°C° 0 mm 6 mps 710 mmHg 67%
19:00 +5°C° 0 mm 7 mps 710 mmHg 67%
20:00 +6°C° 0 mm 8 mps 710 mmHg 67%
21:00 +6°C° 0 mm 10 mps 710 mmHg 67%
22:00 +6°C° 0 mm 10 mps 709 mmHg 67%
23:00 +7°C° 0 mm 11 mps 709 mmHg 66%
Show more